DW7764 Sant Quirze del Vallas ES current weather conditions

sailwx.info

Wind from 031

Air temperature 19.4° C
Dewpoint 18.3° C

Last reported at 2020-Sep-18 13:45 UTC.
Time now 2020-Sep-18 14:32 UTC

Location: N 41°32' E 002°04'.
View on Google Maps.

See reports from other nearby stations

  
Tides and Currents Weather Stations Pressure Air Temp Water Temp Dewpoint Dewpoint Depression Visibility Wind Speed Wind Dir Waves Ship Positions
date/time (UTC)wind fromknots sea level pressurealtimeterstation pressurevisibilityair tempwater tempwave heightnotes
2020-Sep-18 13:45 031 19.4
2020-Sep-18 13:30 020 1 gusting 6 19.4
2020-Sep-18 13:15 009 2 gusting 5 18.9
2020-Sep-18 13:00 352 0 gusting 2 19.4
2020-Sep-18 12:45 318 0 gusting 2 20.0
2020-Sep-18 12:30 321 20.0
2020-Sep-18 12:15 330 0 gusting 3 20.0
2020-Sep-18 12:00 280 0 gusting 2 19.4
2020-Sep-18 11:45 325 19.4
2020-Sep-18 11:30 283 19.4
2020-Sep-18 11:16 285 1 gusting 5 20.0
2020-Sep-18 11:01 285 1 gusting 5 20.6
2020-Sep-18 10:47 249 0 gusting 2 22.2
2020-Sep-18 10:31 280 22.8
2020-Sep-18 10:16 280 22.8
2020-Sep-18 10:01 280 22.8
2020-Sep-18 09:46 280 22.8
2020-Sep-18 09:31 280 22.2
2020-Sep-18 09:16 280 21.7
2020-Sep-18 09:01 280 21.7
2020-Sep-18 08:47 280 21.7
2020-Sep-18 08:32 280 21.7
2020-Sep-18 08:17 280 21.7
2020-Sep-18 08:02 279 21.7
2020-Sep-18 07:46 280 21.7
2020-Sep-18 07:31 280 20.6
2020-Sep-18 07:16 279 20.0
2020-Sep-18 07:01 279 19.4
2020-Sep-18 06:46 280 19.4
2020-Sep-18 06:31 280 18.9
2020-Sep-18 06:15 280 18.9
2020-Sep-18 06:00 280 18.9
2020-Sep-18 05:45 279 18.9
2020-Sep-18 05:31 280 18.9
2020-Sep-18 05:16 279 18.9
2020-Sep-18 05:00 280 18.9
2020-Sep-18 04:45 280 18.9
2020-Sep-18 04:31 279 18.9
2020-Sep-18 04:15 280 18.9
2020-Sep-18 04:00 280 18.9
2020-Sep-18 03:45 279 18.9
2020-Sep-18 03:30 279 18.9
2020-Sep-18 03:15 280 18.3
2020-Sep-18 02:45 280 18.3
2020-Sep-18 02:30 279 18.9
2020-Sep-18 02:15 280 18.9
2020-Sep-18 02:00 280 19.4
2020-Sep-18 01:45 280 20.0
2020-Sep-18 01:30 280 20.0
2020-Sep-18 01:15 280 20.6
2020-Sep-18 01:00 280 20.6
2020-Sep-18 00:47 279 21.1
2020-Sep-18 00:31 279 21.7
2020-Sep-18 00:16 280 22.2
2020-Sep-18 00:02 280 22.2
2020-Sep-17 23:46 280 22.8
2020-Sep-17 23:32 280 22.8
2020-Sep-17 23:17 280 22.8
2020-Sep-17 23:01 293 0 gusting 3 22.8
2020-Sep-17 22:45 283 0 gusting 2 22.8
2020-Sep-17 22:33 298 22.2
2020-Sep-17 22:16 298 22.2
2020-Sep-17 22:01 298 22.2
2020-Sep-17 21:46 298 22.2
2020-Sep-17 21:31 298 22.2
2020-Sep-17 21:17 298 22.8
2020-Sep-17 21:01 298 23.3
2020-Sep-17 20:46 298 23.9
2020-Sep-17 20:32 298 23.9
2020-Sep-17 20:16 298 23.9
2020-Sep-17 20:00 266 23.9
2020-Sep-17 19:46 257 23.9
2020-Sep-17 19:31 255 23.9
2020-Sep-17 19:16 255 24.4
2020-Sep-17 19:01 255 24.4
2020-Sep-17 18:46 255 25.0
2020-Sep-17 18:31 277 25.0
2020-Sep-17 18:16 094 25.0
2020-Sep-17 18:01 262 25.6
2020-Sep-17 17:46 264 25.6
2020-Sep-17 17:30 121 26.1
2020-Sep-17 17:15 121 26.7
2020-Sep-17 17:00 132 27.2
2020-Sep-17 16:46 239 27.8
2020-Sep-17 16:30 193 28.3
2020-Sep-17 16:15 168 28.3
2020-Sep-17 16:00 168 28.9
2020-Sep-17 15:46 217 28.9
2020-Sep-17 15:30 233 28.9
2020-Sep-17 15:15 125 28.9
2020-Sep-17 15:00 108 1 gusting 5 29.4
2020-Sep-17 14:45 194 30.6
2020-Sep-17 14:30 207 30.6
2020-Sep-17 14:16 143 1 gusting 4 30.6
2020-Sep-17 14:00 131 30.6
2020-Sep-17 13:45 142 30.6
2020-Sep-17 13:30 223 30.0
2020-Sep-17 13:15 118 29.4
2020-Sep-17 13:00 103 0 gusting 4 30.0
2020-Sep-17 12:45 135 0 gusting 2 30.0
2020-Sep-17 12:30 154 0 gusting 3 29.4
2020-Sep-17 12:15 270 0 gusting 5 29.4
2020-Sep-17 12:00 103 29.4
2020-Sep-17 11:45 281 0 gusting 4 29.4
2020-Sep-17 11:32 278 0 gusting 2 28.9
2020-Sep-17 11:19 210 28.9
2020-Sep-17 11:01 190 28.3
2020-Sep-17 10:46 131 27.8
2020-Sep-17 10:31 232 26.7
2020-Sep-17 10:16 146 26.1
2020-Sep-17 10:01 113 25.0
2020-Sep-17 09:46 113 24.4
2020-Sep-17 09:32 113 23.3
2020-Sep-17 09:16 113 23.3
2020-Sep-17 09:01 131 0 gusting 1 23.3
2020-Sep-17 08:47 134 22.8
2020-Sep-17 08:31 110 22.8
2020-Sep-17 08:16 245 23.9
2020-Sep-17 08:01 246 23.9
2020-Sep-17 07:45 257 22.8
2020-Sep-17 07:31 283 21.7
2020-Sep-17 07:15 283 20.6
2020-Sep-17 07:00 283 20.0
2020-Sep-17 06:45 297 19.4
2020-Sep-17 06:30 321 18.9
2020-Sep-17 06:15 327 17.8
2020-Sep-17 06:00 328 17.2
2020-Sep-17 05:45 327 17.2
2020-Sep-17 05:30 327 17.8
2020-Sep-17 05:15 328 17.8
2020-Sep-17 05:00 327 17.8
2020-Sep-17 04:45 328 17.8
2020-Sep-17 04:30 328 17.8
2020-Sep-17 04:15 327 18.3
2020-Sep-17 04:00 327 0 gusting 1 18.3
2020-Sep-17 03:45 327 17.8
2020-Sep-17 03:30 330 17.8
2020-Sep-17 03:15 342 17.2
2020-Sep-17 03:00 286 17.2
2020-Sep-17 02:47 287 17.2
2020-Sep-17 02:33 287 17.8
2020-Sep-17 02:16 286 17.8
2020-Sep-17 02:01 286 17.8
2020-Sep-17 01:46 287 17.8
2020-Sep-17 01:31 286 17.8
2020-Sep-17 01:16 287 18.3
2020-Sep-17 01:01 287 17.8
2020-Sep-17 00:46 286 18.3
2020-Sep-17 00:32 287 18.3
2020-Sep-17 00:15 286 18.9
2020-Sep-17 00:03 286 18.9
2020-Sep-16 23:46 287 19.4
2020-Sep-16 23:30 287 19.4
2020-Sep-16 23:15 287 20.0
2020-Sep-16 23:02 286 20.0
2020-Sep-16 22:45 286 20.0
2020-Sep-16 22:31 287 20.0
2020-Sep-16 22:15 286 20.0
2020-Sep-16 22:00 287 20.6
2020-Sep-16 21:45 287 20.6
2020-Sep-16 21:31 287 21.1
2020-Sep-16 21:15 287 21.7
2020-Sep-16 21:01 286 21.7
2020-Sep-16 20:45 284 22.2
2020-Sep-16 20:30 266 22.2
2020-Sep-16 20:16 263 22.8
2020-Sep-16 20:00 263 23.3
2020-Sep-16 19:45 273 23.3
2020-Sep-16 19:30 278 0 gusting 4 23.9
2020-Sep-16 19:15 286 0 gusting 4 23.9
2020-Sep-16 19:01 287 0 gusting 3 23.9
2020-Sep-16 18:45 262 24.4
2020-Sep-16 18:30 285 0 gusting 4 25.0
2020-Sep-16 18:15 266 25.6
2020-Sep-16 18:00 278 25.6
2020-Sep-16 17:45 255 0 gusting 2 26.1
2020-Sep-16 17:30 266 27.2
2020-Sep-16 17:15 142 28.3
2020-Sep-16 17:00 125 28.9
2020-Sep-16 16:45 153 29.4
2020-Sep-16 16:30 153 28.9
2020-Sep-16 16:15 158 0 gusting 3 28.9
2020-Sep-16 16:00 169 1 gusting 3 29.4
2020-Sep-16 15:45 136 1 gusting 6 29.4
2020-Sep-16 15:30 142 1 gusting 5 29.4
2020-Sep-16 15:15 158 2 gusting 5 29.4
2020-Sep-16 15:00 152 2 gusting 7 30.0
2020-Sep-16 14:45 128 1 gusting 5 30.6
2020-Sep-16 14:30 087 2 gusting 6 30.0
2020-Sep-16 14:17 110 3 gusting 6 30.0
2020-Sep-16 14:02 088 2 gusting 5 30.0